Location: Sternwarte auf dem Internationalen Platz Vogelsang IP
(50.5721°N, 6.4398°E)
Time: 10:22:41
(UTC+01:00)

ACS3 Solar Sail - Pass Details

Date: 20 November 2025
Orbit: 888 x 1003 km, 97.3° (Epoch: 07 December)

Event Time Altitude Azimuth Distance (km) Brightness Sun altitude
Rises 03:00:36 0° 18° (NNE) 3,579 5.2 -45.8°
Reaches altitude 10° 03:03:16 10° 28° (NNE) 2,650 4.5 -45.5°
Enters shadow 03:04:21 15° 35° (NE) 2,306 4.2 -45.3°
